Year,Month,Day,Hour,Minute,Value (Times are PST for temperature in C)
2014,10,11,00,00,12.50
2014,10,11,00,01,12.50
2014,10,11,00,02,12.50
2014,10,11,00,03,12.50
2014,10,11,00,04,12.50
2014,10,11,00,05,12.50
2014,10,11,00,06,12.50
2014,10,11,00,07,12.50
2014,10,11,00,08,12.50
2014,10,11,00,09,12.50
2014,10,11,00,10,12.50
2014,10,11,00,11,12.50
2014,10,11,00,12,12.50
2014,10,11,00,13,12.50
2014,10,11,00,14,12.50
2014,10,11,00,15,12.50
2014,10,11,00,16,12.50
2014,10,11,00,17,12.50
2014,10,11,00,18,12.50
2014,10,11,00,19,12.50
2014,10,11,00,20,12.50
2014,10,11,00,21,12.50
2014,10,11,00,22,12.50
2014,10,11,00,23,12.50
2014,10,11,00,24,12.50
2014,10,11,00,25,12.50
2014,10,11,00,26,12.50
2014,10,11,00,27,12.50
2014,10,11,00,28,12.50
2014,10,11,00,29,12.60
2014,10,11,00,30,12.60
2014,10,11,00,31,12.60
2014,10,11,00,32,12.60
2014,10,11,00,33,12.50
2014,10,11,00,34,12.60
2014,10,11,00,35,12.60
2014,10,11,00,36,12.60
2014,10,11,00,37,12.60
2014,10,11,00,38,12.60
2014,10,11,00,39,12.60
2014,10,11,00,40,12.60
2014,10,11,00,41,12.60
2014,10,11,00,42,12.60
2014,10,11,00,43,12.50
2014,10,11,00,44,12.50
2014,10,11,00,45,12.50
2014,10,11,00,46,12.50
2014,10,11,00,47,12.50
2014,10,11,00,48,12.40
2014,10,11,00,49,12.40
2014,10,11,00,50,12.40
2014,10,11,00,51,12.40
2014,10,11,00,52,12.40
2014,10,11,00,53,12.40
2014,10,11,00,54,12.40
2014,10,11,00,55,12.40
2014,10,11,00,56,12.40
2014,10,11,00,57,12.40
2014,10,11,00,58,12.30
2014,10,11,00,59,12.30
2014,10,11,01,00,12.30
2014,10,11,01,01,12.30
2014,10,11,01,02,12.30
2014,10,11,01,03,12.30
2014,10,11,01,04,12.30
2014,10,11,01,05,12.30
2014,10,11,01,06,12.30
2014,10,11,01,07,12.30
2014,10,11,01,08,12.30
2014,10,11,01,09,12.30
2014,10,11,01,10,12.30
2014,10,11,01,11,12.30
2014,10,11,01,12,12.30
2014,10,11,01,13,12.30
2014,10,11,01,14,12.30
2014,10,11,01,15,12.30
2014,10,11,01,16,12.30
2014,10,11,01,17,12.30
2014,10,11,01,18,12.30
2014,10,11,01,19,12.30
2014,10,11,01,20,12.30
2014,10,11,01,21,12.20
2014,10,11,01,22,12.20
2014,10,11,01,23,12.20
2014,10,11,01,24,12.20
2014,10,11,01,25,12.20
2014,10,11,01,26,12.20
2014,10,11,01,27,12.20
2014,10,11,01,28,12.20
2014,10,11,01,29,12.20
2014,10,11,01,30,12.20
2014,10,11,01,31,12.20
2014,10,11,01,32,12.20
2014,10,11,01,33,12.20
2014,10,11,01,34,12.20
2014,10,11,01,35,12.20
2014,10,11,01,36,12.20
2014,10,11,01,37,12.20
2014,10,11,01,38,12.20
2014,10,11,01,39,12.20
2014,10,11,01,40,12.20
2014,10,11,01,41,12.20
2014,10,11,01,42,12.20
2014,10,11,01,43,12.20
2014,10,11,01,44,12.20
2014,10,11,01,45,12.20
2014,10,11,01,46,12.20
2014,10,11,01,47,12.20
2014,10,11,01,48,12.20
2014,10,11,01,49,12.20
2014,10,11,01,50,12.20
2014,10,11,01,51,12.20
2014,10,11,01,52,12.20
2014,10,11,01,53,12.20
2014,10,11,01,54,12.20
2014,10,11,01,55,12.20
2014,10,11,01,56,12.20
2014,10,11,01,57,12.20
2014,10,11,01,58,12.20
2014,10,11,01,59,12.20
2014,10,11,02,00,12.20
2014,10,11,02,01,12.20
2014,10,11,02,02,12.20
2014,10,11,02,03,12.20
2014,10,11,02,04,12.20
2014,10,11,02,05,12.20
2014,10,11,02,06,12.20
2014,10,11,02,07,12.20
2014,10,11,02,08,12.20
2014,10,11,02,09,12.20
2014,10,11,02,10,12.20
2014,10,11,02,11,12.20
2014,10,11,02,12,12.20
2014,10,11,02,13,12.20
2014,10,11,02,14,12.20
2014,10,11,02,15,12.20
2014,10,11,02,16,12.20
2014,10,11,02,17,12.20
2014,10,11,02,18,12.20
2014,10,11,02,19,12.20
2014,10,11,02,20,12.20
2014,10,11,02,21,12.20
2014,10,11,02,22,12.20
2014,10,11,02,23,12.20
2014,10,11,02,24,12.20
2014,10,11,02,25,12.20
2014,10,11,02,26,12.20
2014,10,11,02,27,12.20
2014,10,11,02,28,12.20
2014,10,11,02,29,12.20
2014,10,11,02,30,12.20
2014,10,11,02,31,12.20
2014,10,11,02,32,12.20
2014,10,11,02,33,12.20
2014,10,11,02,34,12.20
2014,10,11,02,35,12.20
2014,10,11,02,36,12.20
2014,10,11,09,06,11.80
2014,10,11,09,07,11.80
2014,10,11,09,08,11.80
2014,10,11,09,09,11.80
2014,10,11,09,10,11.80
2014,10,11,09,11,11.80
2014,10,11,09,12,11.80
2014,10,11,09,13,11.80
2014,10,11,09,14,11.80
2014,10,11,09,15,11.80
2014,10,11,09,16,11.80
2014,10,11,09,17,11.90
2014,10,11,09,18,11.90
2014,10,11,09,19,11.90
2014,10,11,09,20,11.90
2014,10,11,09,21,12.00
2014,10,11,09,22,12.00
2014,10,11,09,23,12.00
2014,10,11,09,24,12.10
2014,10,11,09,25,12.10
2014,10,11,09,26,12.20
2014,10,11,09,27,12.20
2014,10,11,09,28,12.20
2014,10,11,09,29,12.20
2014,10,11,09,30,12.30
2014,10,11,09,31,12.30
2014,10,11,09,32,12.40
2014,10,11,09,33,12.40
2014,10,11,09,34,12.40
2014,10,11,09,35,12.50
2014,10,11,09,36,12.50
2014,10,11,09,37,12.40
2014,10,11,09,38,12.40
2014,10,11,09,39,12.40
2014,10,11,09,40,12.50
2014,10,11,09,41,12.50
2014,10,11,09,42,12.60
2014,10,11,09,43,12.70
2014,10,11,09,44,12.70
2014,10,11,09,45,12.80
2014,10,11,09,46,12.80
2014,10,11,09,47,12.80
2014,10,11,09,48,12.90
2014,10,11,09,49,12.90
2014,10,11,09,50,12.90
2014,10,11,09,51,13.00
2014,10,11,09,52,13.00
2014,10,11,09,53,13.00
2014,10,11,09,54,13.10
2014,10,11,09,55,13.10
2014,10,11,09,56,13.10
2014,10,11,09,57,13.20
2014,10,11,09,58,13.20
2014,10,11,09,59,13.20
2014,10,11,10,00,13.30
2014,10,11,10,01,13.30
2014,10,11,10,02,13.40
2014,10,11,10,03,13.40
2014,10,11,10,04,13.40
2014,10,11,10,05,13.40
2014,10,11,10,06,13.40
2014,10,11,10,07,13.40
2014,10,11,10,08,13.40
2014,10,11,10,09,13.50
2014,10,11,10,10,13.50
2014,10,11,10,11,13.60
2014,10,11,10,12,13.60
2014,10,11,10,13,13.70
2014,10,11,10,14,13.80
2014,10,11,10,15,13.80
2014,10,11,10,16,13.90
2014,10,11,10,17,14.00
2014,10,11,10,18,14.10
2014,10,11,10,19,14.10
2014,10,11,10,20,14.10
2014,10,11,10,21,14.20
2014,10,11,10,22,14.20
2014,10,11,10,23,14.20
2014,10,11,10,24,14.20
2014,10,11,10,25,14.00
2014,10,11,10,26,14.00
2014,10,11,10,27,14.00
2014,10,11,10,28,14.00
2014,10,11,10,29,14.10
2014,10,11,10,30,14.10
2014,10,11,10,31,14.00
2014,10,11,10,32,14.00
2014,10,11,10,33,14.00
2014,10,11,10,34,14.00
2014,10,11,10,35,14.00
2014,10,11,10,36,14.00
2014,10,11,10,37,14.00
2014,10,11,10,38,14.00
2014,10,11,10,39,14.00
2014,10,11,10,40,14.00
2014,10,11,10,41,14.00
2014,10,11,10,42,14.00
2014,10,11,10,43,14.00
2014,10,11,10,44,14.00
2014,10,11,10,45,14.00
2014,10,11,10,46,13.90
2014,10,11,10,47,13.90
2014,10,11,10,48,13.90
2014,10,11,10,49,13.90
2014,10,11,10,50,13.90
2014,10,11,10,51,13.90
2014,10,11,10,52,13.90
2014,10,11,10,53,13.90
2014,10,11,10,54,13.90
2014,10,11,10,55,13.90
2014,10,11,10,56,13.80
2014,10,11,10,57,13.80
2014,10,11,10,58,13.80
2014,10,11,10,59,13.80
2014,10,11,11,00,13.80
2014,10,11,11,01,13.80
2014,10,11,11,02,13.80
2014,10,11,11,03,13.80
2014,10,11,11,04,13.80
2014,10,11,11,05,13.80
2014,10,11,11,06,13.90
2014,10,11,11,07,13.90
2014,10,11,11,08,13.90
2014,10,11,11,09,14.00
2014,10,11,11,10,14.00
2014,10,11,11,11,14.10
2014,10,11,11,12,14.10
2014,10,11,11,13,14.10
2014,10,11,11,14,14.10
2014,10,11,11,15,14.20
2014,10,11,11,16,14.20
2014,10,11,11,17,14.20
2014,10,11,11,18,14.20
2014,10,11,11,19,14.20
2014,10,11,11,20,14.30
2014,10,11,11,21,14.30
2014,10,11,11,22,14.30
2014,10,11,11,23,14.40
2014,10,11,11,24,14.40
2014,10,11,11,25,14.50
2014,10,11,11,26,14.50
2014,10,11,11,27,14.60
2014,10,11,11,28,14.60
2014,10,11,11,29,14.70
2014,10,11,11,30,14.70
2014,10,11,11,31,14.80
2014,10,11,11,32,14.80
2014,10,11,11,33,14.90
2014,10,11,11,34,15.00
2014,10,11,11,35,14.90
2014,10,11,11,36,15.00
2014,10,11,11,37,15.00
2014,10,11,11,38,15.00
2014,10,11,11,39,15.00
2014,10,11,11,40,15.00
2014,10,11,11,41,15.10
2014,10,11,11,42,15.20
2014,10,11,11,43,15.20
2014,10,11,11,44,15.20
2014,10,11,11,45,15.20
2014,10,11,11,46,15.30
2014,10,11,11,47,15.30
2014,10,11,11,48,15.30
2014,10,11,11,49,15.40
2014,10,11,11,50,15.50
2014,10,11,11,51,15.60
2014,10,11,11,52,15.60
2014,10,11,11,53,15.60
2014,10,11,11,54,15.60
2014,10,11,11,55,15.60
2014,10,11,11,56,15.50
2014,10,11,11,57,15.40
2014,10,11,11,58,15.40
2014,10,11,11,59,15.30
2014,10,11,12,00,15.30
2014,10,11,12,01,15.20
2014,10,11,12,02,15.10
2014,10,11,12,03,15.10
2014,10,11,12,04,15.10
2014,10,11,12,05,15.20
2014,10,11,12,06,15.20
2014,10,11,12,07,15.20
2014,10,11,12,08,15.30
2014,10,11,12,09,15.30
2014,10,11,12,10,15.40
2014,10,11,12,11,15.40
2014,10,11,12,12,15.40
2014,10,11,12,13,15.50
2014,10,11,12,14,15.40
2014,10,11,12,15,15.40
2014,10,11,12,16,15.40
2014,10,11,12,17,15.40
2014,10,11,12,18,15.50
2014,10,11,12,19,15.50
2014,10,11,12,20,15.50
2014,10,11,12,21,15.60
2014,10,11,12,22,15.60
2014,10,11,12,23,15.70
2014,10,11,12,24,15.70
2014,10,11,12,25,15.70
2014,10,11,12,26,15.70
2014,10,11,12,27,15.60
2014,10,11,12,28,15.60
2014,10,11,12,29,15.60
2014,10,11,12,30,15.60
2014,10,11,12,31,15.50
2014,10,11,12,32,15.50
2014,10,11,12,33,15.40
2014,10,11,12,34,15.40
2014,10,11,12,35,15.30
2014,10,11,12,36,15.30
2014,10,11,12,37,15.30
2014,10,11,12,38,15.30
2014,10,11,12,39,15.30
2014,10,11,12,40,15.30
2014,10,11,12,41,15.30
2014,10,11,12,42,15.30
2014,10,11,12,43,15.30
2014,10,11,12,44,15.30
2014,10,11,12,45,15.30
2014,10,11,12,46,15.30
2014,10,11,12,47,15.30
2014,10,11,12,48,15.30
2014,10,11,12,49,15.30
2014,10,11,12,50,15.30
2014,10,11,12,51,15.40
2014,10,11,12,52,15.40
2014,10,11,12,53,15.40
2014,10,11,12,54,15.40
2014,10,11,12,55,15.50
2014,10,11,12,56,15.50
2014,10,11,12,57,15.50
2014,10,11,12,58,15.50
2014,10,11,12,59,15.50
2014,10,11,13,00,15.60
2014,10,11,13,01,15.60
2014,10,11,13,02,15.60
2014,10,11,13,03,15.60
2014,10,11,13,04,15.60
2014,10,11,13,05,15.60
2014,10,11,13,06,15.70
2014,10,11,13,07,15.70
2014,10,11,13,08,15.70
2014,10,11,13,09,15.80
2014,10,11,13,10,15.80
2014,10,11,13,11,15.80
2014,10,11,13,12,15.90
2014,10,11,13,13,15.90
2014,10,11,13,14,15.90
2014,10,11,13,15,15.90
2014,10,11,13,16,15.80
2014,10,11,13,17,15.80
2014,10,11,13,18,15.80
2014,10,11,13,19,15.70
2014,10,11,13,20,15.60
2014,10,11,13,21,15.60
2014,10,11,13,22,15.50
2014,10,11,13,23,15.50
2014,10,11,13,24,15.40
2014,10,11,13,25,15.30
2014,10,11,13,26,15.30
2014,10,11,13,27,15.30
2014,10,11,13,28,15.30
2014,10,11,13,29,15.20
2014,10,11,13,30,15.30
2014,10,11,13,31,15.30
2014,10,11,13,32,15.30
2014,10,11,13,33,15.30
2014,10,11,13,34,15.40
2014,10,11,13,35,15.40
2014,10,11,13,36,15.50
2014,10,11,13,37,15.60
2014,10,11,13,38,15.60
2014,10,11,13,39,15.70
2014,10,11,13,40,15.70
2014,10,11,13,41,15.80
2014,10,11,13,42,15.80
2014,10,11,13,43,15.90
2014,10,11,13,44,16.00
2014,10,11,13,45,16.10
2014,10,11,13,46,16.20
2014,10,11,13,47,16.30
2014,10,11,13,48,16.40
2014,10,11,13,49,16.50
2014,10,11,13,50,16.60
2014,10,11,13,51,16.60
2014,10,11,13,52,16.60
2014,10,11,13,53,16.60
2014,10,11,13,54,16.60
2014,10,11,13,55,16.50
2014,10,11,13,56,16.40
2014,10,11,13,57,16.40
2014,10,11,13,58,16.30
2014,10,11,13,59,16.20
2014,10,11,14,00,16.20
2014,10,11,14,01,16.20
2014,10,11,14,02,16.10
2014,10,11,14,03,16.10
2014,10,11,14,04,16.10
2014,10,11,14,05,16.10
2014,10,11,14,06,16.10
2014,10,11,14,07,16.10
2014,10,11,14,08,16.10
2014,10,11,14,09,16.10
2014,10,11,14,10,16.10
2014,10,11,14,11,16.10
2014,10,11,14,12,16.10
2014,10,11,14,13,16.10
2014,10,11,14,14,16.00
2014,10,11,14,15,16.00
2014,10,11,14,16,15.90
2014,10,11,14,17,15.90
2014,10,11,14,18,15.80
2014,10,11,14,19,15.70
2014,10,11,14,20,15.60
2014,10,11,14,21,15.60
2014,10,11,14,22,15.50
2014,10,11,14,23,15.50
2014,10,11,14,24,15.40
2014,10,11,14,25,15.40
2014,10,11,14,26,15.50
2014,10,11,14,27,15.50
2014,10,11,14,28,15.50
2014,10,11,14,29,15.60
2014,10,11,14,30,15.70
2014,10,11,14,31,15.70
2014,10,11,14,32,15.80
2014,10,11,14,33,15.90
2014,10,11,14,34,15.90
2014,10,11,14,35,15.90
2014,10,11,14,36,15.90
2014,10,11,14,37,15.80
2014,10,11,14,38,15.80
2014,10,11,14,39,15.80
2014,10,11,14,40,15.80
2014,10,11,14,41,15.70
2014,10,11,14,42,15.70
2014,10,11,14,43,15.70
2014,10,11,14,44,15.70
2014,10,11,14,45,15.70
2014,10,11,14,46,15.70
2014,10,11,14,47,15.60
2014,10,11,14,48,15.60
2014,10,11,14,49,15.50
2014,10,11,14,50,15.50
2014,10,11,14,51,15.50
2014,10,11,14,52,15.50
2014,10,11,14,53,15.50
2014,10,11,14,54,15.60
2014,10,11,14,55,15.60
2014,10,11,14,56,15.50
2014,10,11,14,57,15.60
2014,10,11,14,58,15.60
2014,10,11,14,59,15.60
2014,10,11,15,00,15.60
2014,10,11,15,01,15.60
2014,10,11,15,02,15.70
2014,10,11,15,03,15.60
2014,10,11,15,04,15.60
2014,10,11,15,05,15.60
2014,10,11,15,06,15.60
2014,10,11,15,07,15.60
2014,10,11,15,08,15.60
2014,10,11,15,09,15.60
2014,10,11,15,10,15.60
2014,10,11,15,11,15.60
2014,10,11,15,12,15.60
2014,10,11,15,13,15.60
2014,10,11,15,14,15.60
2014,10,11,15,15,15.60
2014,10,11,15,16,15.70
2014,10,11,15,17,15.70
2014,10,11,15,18,15.80
2014,10,11,15,19,15.80
2014,10,11,15,20,15.80
2014,10,11,15,21,15.80
2014,10,11,15,22,15.90
2014,10,11,15,23,16.00
2014,10,11,15,24,16.00
2014,10,11,15,25,16.10
2014,10,11,15,26,16.10
2014,10,11,15,27,16.10
2014,10,11,15,28,16.10
2014,10,11,15,29,16.10
2014,10,11,15,30,16.10
2014,10,11,15,31,16.20
2014,10,11,15,32,16.20
2014,10,11,15,33,16.20
2014,10,11,15,34,16.20
2014,10,11,15,35,16.20
2014,10,11,15,36,16.20
2014,10,11,15,37,16.20
2014,10,11,15,38,16.20
2014,10,11,15,39,16.20
2014,10,11,15,40,16.20
2014,10,11,15,41,16.20
2014,10,11,15,42,16.30
2014,10,11,15,43,16.30
2014,10,11,15,44,16.30
2014,10,11,15,45,16.30
2014,10,11,15,46,16.30
2014,10,11,15,47,16.40
2014,10,11,15,48,16.40
2014,10,11,15,49,16.40
2014,10,11,15,50,16.50
2014,10,11,15,51,16.50
2014,10,11,15,52,16.50
2014,10,11,15,53,16.50
2014,10,11,15,54,16.40
2014,10,11,15,55,16.30
2014,10,11,15,56,16.30
2014,10,11,15,57,16.30
2014,10,11,15,58,16.30
2014,10,11,15,59,16.20
2014,10,11,16,00,16.20
2014,10,11,16,01,16.20
2014,10,11,16,02,16.20
2014,10,11,16,03,16.20
2014,10,11,16,04,16.20
2014,10,11,16,05,16.20
2014,10,11,16,06,16.20
2014,10,11,16,07,16.20
2014,10,11,16,08,16.20
2014,10,11,16,09,16.20
2014,10,11,16,10,16.20
2014,10,11,16,11,16.20
2014,10,11,16,12,16.20
2014,10,11,16,13,16.10
2014,10,11,16,14,16.10
2014,10,11,16,15,16.10
2014,10,11,16,16,16.10
2014,10,11,16,17,16.10
2014,10,11,16,18,16.20
2014,10,11,16,19,16.20
2014,10,11,16,20,16.20
2014,10,11,16,21,16.20
2014,10,11,16,22,16.30
2014,10,11,16,23,16.30
2014,10,11,16,24,16.30
2014,10,11,16,25,16.30
2014,10,11,16,26,16.30
2014,10,11,16,27,16.30
2014,10,11,16,28,16.20
2014,10,11,16,29,16.20
2014,10,11,16,30,16.20
2014,10,11,16,31,16.20
2014,10,11,16,32,16.20
2014,10,11,16,33,16.20
2014,10,11,16,34,16.10
2014,10,11,16,35,16.10
2014,10,11,16,36,16.10
2014,10,11,16,37,16.00
2014,10,11,16,38,16.00
2014,10,11,16,39,16.00
2014,10,11,16,40,16.00
2014,10,11,16,41,16.00
2014,10,11,16,42,16.00
2014,10,11,16,43,16.00
2014,10,11,16,44,16.00
2014,10,11,16,45,16.00
2014,10,11,16,46,15.90
2014,10,11,16,47,15.90
2014,10,11,16,48,15.90
2014,10,11,16,49,15.90
2014,10,11,16,50,15.80
2014,10,11,16,51,15.80
2014,10,11,16,52,15.80
2014,10,11,16,53,15.80
2014,10,11,16,54,15.70
2014,10,11,16,55,15.70
2014,10,11,16,56,15.70
2014,10,11,16,57,15.70
2014,10,11,16,58,15.70
2014,10,11,16,59,15.70
2014,10,11,17,00,15.60
2014,10,11,17,01,15.60
2014,10,11,17,02,15.60
2014,10,11,17,03,15.60
2014,10,11,17,04,15.60
2014,10,11,17,05,15.60
2014,10,11,17,06,15.60
2014,10,11,17,07,15.60
2014,10,11,17,08,15.70
2014,10,11,17,09,15.70
2014,10,11,17,10,15.70
2014,10,11,17,11,15.60
2014,10,11,17,12,15.60
2014,10,11,17,13,15.60
2014,10,11,17,14,15.60
2014,10,11,17,15,15.60
2014,10,11,17,16,15.60
2014,10,11,17,17,15.60
2014,10,11,17,18,15.50
2014,10,11,17,19,15.50
2014,10,11,17,20,15.50
2014,10,11,17,21,15.50
2014,10,11,17,22,15.50
2014,10,11,17,23,15.40
2014,10,11,17,24,15.40
2014,10,11,17,25,15.40
2014,10,11,17,26,15.40
2014,10,11,17,27,15.40
2014,10,11,17,28,15.40
2014,10,11,17,29,15.40
2014,10,11,17,30,15.40
2014,10,11,17,31,15.40
2014,10,11,17,32,15.40
2014,10,11,17,33,15.30
2014,10,11,17,34,15.30
2014,10,11,17,35,15.30
2014,10,11,17,36,15.30
2014,10,11,17,37,15.30
2014,10,11,17,38,15.30
2014,10,11,17,39,15.30
2014,10,11,17,40,15.30
2014,10,11,17,41,15.30
2014,10,11,17,42,15.30
2014,10,11,17,43,15.30
2014,10,11,17,44,15.30
2014,10,11,17,45,15.30
2014,10,11,17,46,15.30
2014,10,11,17,47,15.30
2014,10,11,17,48,15.30
2014,10,11,17,49,15.30
2014,10,11,17,50,15.30
2014,10,11,17,51,15.30
2014,10,11,17,52,15.30
2014,10,11,17,53,15.30
2014,10,11,17,54,15.30
2014,10,11,17,55,15.20
2014,10,11,17,56,15.20
2014,10,11,17,57,15.20
2014,10,11,17,58,15.20
2014,10,11,17,59,15.20
2014,10,11,18,00,15.10
2014,10,11,18,01,15.10
2014,10,11,18,02,15.00
2014,10,11,18,03,15.00
2014,10,11,18,04,15.00
2014,10,11,18,05,15.00
2014,10,11,18,06,15.00
2014,10,11,18,07,15.00
2014,10,11,18,08,15.00
2014,10,11,18,09,15.00
2014,10,11,18,10,15.00
2014,10,11,18,11,15.00
2014,10,11,18,12,15.00
2014,10,11,18,13,15.00
2014,10,11,18,14,15.00
2014,10,11,18,15,15.00
2014,10,11,18,16,14.90
2014,10,11,18,17,14.90
2014,10,11,18,18,14.90
2014,10,11,18,19,14.80
2014,10,11,18,20,14.80
2014,10,11,18,21,14.80
2014,10,11,18,22,14.80
2014,10,11,18,23,14.70
2014,10,11,18,24,14.70
2014,10,11,18,25,14.70
2014,10,11,18,26,14.70
2014,10,11,18,27,14.70
2014,10,11,18,28,14.70
2014,10,11,18,29,14.60
2014,10,11,18,30,14.60
2014,10,11,18,31,14.60
2014,10,11,18,32,14.60
2014,10,11,18,33,14.50
2014,10,11,18,34,14.50
2014,10,11,18,35,14.50
2014,10,11,18,36,14.40
2014,10,11,18,37,14.40
2014,10,11,18,38,14.40
2014,10,11,18,39,14.30
2014,10,11,18,40,14.30
2014,10,11,18,41,14.30
2014,10,11,18,42,14.30
2014,10,11,18,43,14.20
2014,10,11,18,44,14.20
2014,10,11,18,45,14.20
2014,10,11,18,46,14.20
2014,10,11,18,47,14.10
2014,10,11,18,48,14.10
2014,10,11,18,49,14.10
2014,10,11,18,50,14.10
2014,10,11,18,51,14.00
2014,10,11,18,52,14.00
2014,10,11,18,53,14.00
2014,10,11,18,54,13.90
2014,10,11,18,55,13.90
2014,10,11,18,56,13.90
2014,10,11,18,57,13.90
2014,10,11,18,58,13.80
2014,10,11,18,59,13.80
2014,10,11,19,00,13.80
2014,10,11,19,01,13.80
2014,10,11,19,02,13.80
2014,10,11,19,03,13.80
2014,10,11,19,04,13.80
2014,10,11,19,05,13.70
2014,10,11,19,06,13.70
2014,10,11,19,07,13.70
2014,10,11,19,08,13.70
2014,10,11,19,09,13.60
2014,10,11,19,10,13.60
2014,10,11,19,11,13.60
2014,10,11,19,12,13.60
2014,10,11,19,13,13.50
2014,10,11,19,14,13.50
2014,10,11,19,15,13.50
2014,10,11,19,16,13.40
2014,10,11,19,17,13.40
2014,10,11,19,18,13.40
2014,10,11,19,19,13.40
2014,10,11,19,20,13.40
2014,10,11,19,21,13.40
2014,10,11,19,22,13.40
2014,10,11,19,23,13.40
2014,10,11,19,24,13.40
2014,10,11,19,25,13.40
2014,10,11,19,26,13.40
2014,10,11,19,27,13.30
2014,10,11,19,28,13.30
2014,10,11,19,29,13.30
2014,10,11,19,30,13.30
2014,10,11,19,31,13.30
2014,10,11,19,32,13.30
2014,10,11,19,33,13.30
2014,10,11,19,34,13.30
2014,10,11,19,35,13.20
2014,10,11,19,36,13.20
2014,10,11,19,37,13.20
2014,10,11,19,38,13.20
2014,10,11,19,39,13.20
2014,10,11,19,40,13.20
2014,10,11,19,41,13.20
2014,10,11,19,42,13.20
2014,10,11,19,43,13.20
2014,10,11,19,44,13.20
2014,10,11,19,45,13.10
2014,10,11,19,46,13.10
2014,10,11,19,47,13.10
2014,10,11,19,48,13.10
2014,10,11,19,49,13.00
2014,10,11,19,50,13.00
2014,10,11,19,51,12.90
2014,10,11,19,52,12.90
2014,10,11,19,53,12.90
2014,10,11,19,54,12.80
2014,10,11,19,55,12.80
2014,10,11,19,56,12.80
2014,10,11,19,57,12.80
2014,10,11,19,58,12.80
2014,10,11,19,59,12.80
2014,10,11,20,00,12.70
2014,10,11,20,01,12.70
2014,10,11,20,02,12.70
2014,10,11,20,03,12.70
2014,10,11,20,04,12.70
2014,10,11,20,05,12.70
2014,10,11,20,06,12.70
2014,10,11,20,07,12.70
2014,10,11,20,08,12.70
2014,10,11,20,09,12.60
2014,10,11,20,10,12.60
2014,10,11,20,11,12.60
2014,10,11,20,12,12.60
2014,10,11,20,13,12.60
2014,10,11,20,14,12.50
2014,10,11,20,15,12.50
2014,10,11,20,16,12.50
2014,10,11,20,17,12.40
2014,10,11,20,18,12.40
2014,10,11,20,19,12.40
2014,10,11,20,20,12.40
2014,10,11,20,21,12.30
2014,10,11,20,22,12.30
2014,10,11,20,23,12.30
2014,10,11,20,24,12.30
2014,10,11,20,25,12.30
2014,10,11,20,26,12.30
2014,10,11,20,27,12.30
2014,10,11,20,28,12.20
2014,10,11,20,29,12.10
2014,10,11,20,30,12.10
2014,10,11,20,31,12.10
2014,10,11,20,32,12.10
2014,10,11,20,33,12.00
2014,10,11,20,34,12.00
2014,10,11,20,35,12.00
2014,10,11,20,36,12.00
2014,10,11,20,37,12.00
2014,10,11,20,38,11.90
2014,10,11,20,39,11.90
2014,10,11,20,40,11.90
2014,10,11,20,41,11.90
2014,10,11,20,42,11.90
2014,10,11,20,43,11.80
2014,10,11,20,44,11.80
2014,10,11,20,45,11.80
2014,10,11,20,46,11.80
2014,10,11,20,47,11.80
2014,10,11,20,48,11.70
2014,10,11,20,49,11.70
2014,10,11,20,50,11.70
2014,10,11,20,51,11.70
2014,10,11,20,52,11.60
2014,10,11,20,53,11.60
2014,10,11,20,54,11.60
2014,10,11,20,55,11.60
2014,10,11,20,56,11.60
2014,10,11,20,57,11.50
2014,10,11,20,58,11.50
2014,10,11,20,59,11.50
2014,10,11,21,00,11.50
2014,10,11,21,01,11.40
2014,10,11,21,02,11.40
2014,10,11,21,03,11.40
2014,10,11,21,04,11.40
2014,10,11,21,05,11.40
2014,10,11,21,06,11.30
2014,10,11,21,07,11.30
2014,10,11,21,08,11.30
2014,10,11,21,09,11.30
2014,10,11,21,10,11.20
2014,10,11,21,11,11.20
2014,10,11,21,12,11.20
2014,10,11,21,13,11.10
2014,10,11,21,14,11.10
2014,10,11,21,15,11.10
2014,10,11,21,16,11.10
2014,10,11,21,17,11.00
2014,10,11,21,18,11.00
2014,10,11,21,19,11.00
2014,10,11,21,20,10.90
2014,10,11,21,21,10.90
2014,10,11,21,22,11.00
2014,10,11,21,23,11.00
2014,10,11,21,24,11.00
2014,10,11,21,25,11.00
2014,10,11,21,26,11.00
2014,10,11,21,27,11.00
2014,10,11,21,28,11.00
2014,10,11,21,29,11.00
2014,10,11,21,30,10.90
2014,10,11,21,31,10.90
2014,10,11,21,32,10.90
2014,10,11,21,33,10.90
2014,10,11,21,34,10.80
2014,10,11,21,35,10.80
2014,10,11,21,36,10.80
2014,10,11,21,37,10.80
2014,10,11,21,38,10.80
2014,10,11,21,39,10.80
2014,10,11,21,40,10.80
2014,10,11,21,41,10.80
2014,10,11,21,42,10.80
2014,10,11,21,43,10.70
2014,10,11,21,44,10.70
2014,10,11,21,45,10.70
2014,10,11,21,46,10.70
2014,10,11,21,47,10.60
2014,10,11,21,48,10.60
2014,10,11,21,49,10.60
2014,10,11,21,50,10.50
2014,10,11,21,51,10.50
2014,10,11,21,52,10.50
2014,10,11,21,53,10.40
2014,10,11,21,54,10.40
2014,10,11,21,55,10.40
2014,10,11,21,56,10.30
2014,10,11,21,57,10.30
2014,10,11,21,58,10.30
2014,10,11,21,59,10.30
2014,10,11,22,00,10.20
2014,10,11,22,01,10.20
2014,10,11,22,02,10.20
2014,10,11,22,03,10.10
2014,10,11,22,04,10.10
2014,10,11,22,05,10.10
2014,10,11,22,06,10.10
2014,10,11,22,07,10.10
2014,10,11,22,08,10.00
2014,10,11,22,09,10.00
2014,10,11,22,10,10.00
2014,10,11,22,11,9.90
2014,10,11,22,12,9.90
2014,10,11,22,13,9.90
2014,10,11,22,14,9.90
2014,10,11,22,15,9.90
2014,10,11,22,16,9.90
2014,10,11,22,17,9.90
2014,10,11,22,18,9.90
2014,10,11,22,19,9.90
2014,10,11,22,20,9.90
2014,10,11,22,21,9.80
2014,10,11,22,22,9.80
2014,10,11,22,23,9.80
2014,10,11,22,24,9.80
2014,10,11,22,25,9.80
2014,10,11,22,26,9.80
2014,10,11,22,27,9.80
2014,10,11,22,28,9.80
2014,10,11,22,29,9.80
2014,10,11,22,30,9.80
2014,10,11,22,31,9.90
2014,10,11,22,32,9.90
2014,10,11,22,33,9.90
2014,10,11,22,34,9.90
2014,10,11,22,35,9.90
2014,10,11,22,36,10.00
2014,10,11,22,37,10.00
2014,10,11,22,38,10.00
2014,10,11,22,39,10.10
2014,10,11,22,40,10.10
2014,10,11,22,41,10.00
2014,10,11,22,42,10.00
2014,10,11,22,43,9.90
2014,10,11,22,44,9.90
2014,10,11,22,45,9.90
2014,10,11,22,46,9.80
2014,10,11,22,47,9.80
2014,10,11,22,48,9.80
2014,10,11,22,49,9.80
2014,10,11,22,50,9.80
2014,10,11,22,51,9.80
2014,10,11,22,52,9.80
2014,10,11,22,53,9.80
2014,10,11,22,54,9.80
2014,10,11,22,55,9.80
2014,10,11,22,56,9.80
2014,10,11,22,57,9.80
2014,10,11,22,58,9.80
2014,10,11,22,59,9.80
2014,10,11,23,00,9.80
2014,10,11,23,01,9.80
2014,10,11,23,02,9.80
2014,10,11,23,03,9.80
2014,10,11,23,04,9.80
2014,10,11,23,05,9.80
2014,10,11,23,06,9.80
2014,10,11,23,07,9.80
2014,10,11,23,08,9.80
2014,10,11,23,09,9.80
2014,10,11,23,10,9.80
2014,10,11,23,11,9.70
2014,10,11,23,12,9.70
2014,10,11,23,13,9.70
2014,10,11,23,14,9.70
2014,10,11,23,15,9.70
2014,10,11,23,16,9.70
2014,10,11,23,17,9.70
2014,10,11,23,18,9.80
2014,10,11,23,19,9.80
2014,10,11,23,20,9.80
2014,10,11,23,21,9.80
2014,10,11,23,22,9.80
2014,10,11,23,23,9.80
2014,10,11,23,24,9.80
2014,10,11,23,25,9.80
2014,10,11,23,26,9.80
2014,10,11,23,27,9.80
2014,10,11,23,28,9.80
2014,10,11,23,29,9.80
2014,10,11,23,30,9.90
2014,10,11,23,31,9.90
2014,10,11,23,32,9.90
2014,10,11,23,33,10.00
2014,10,11,23,34,10.00
2014,10,11,23,35,10.10
2014,10,11,23,36,10.10
2014,10,11,23,37,10.20
2014,10,11,23,38,10.20
2014,10,11,23,39,10.30
2014,10,11,23,40,10.30
2014,10,11,23,41,10.30
2014,10,11,23,42,10.30
2014,10,11,23,43,10.40
2014,10,11,23,44,10.40
2014,10,11,23,45,10.40
2014,10,11,23,46,10.40
2014,10,11,23,47,10.40
2014,10,11,23,48,10.50
2014,10,11,23,49,10.50
2014,10,11,23,50,10.50
2014,10,11,23,51,10.50